Change the Weather History Date:

Tuesday, January 8, 2013

  Actual Average (KLEE) Record (KLEE)
Temperature  
Mean Temperature 68 °F -  
Max Temperature 80 °F 71 °F 82 °F (1991)
Min Temperature 57 °F 49 °F 24 °F (1970)
Cooling Degree Days 4    
Growing Degree Days 18 (Base 50)    
Moisture  
Dew Point 63 °F    
Average Humidity 86    
Maximum Humidity 100    
Minimum Humidity 61    
Precipitation  
Precipitation 0.00 in - - ()
Sea Level Pressure  
Sea Level Pressure 30.20 in    
Wind  
Wind Speed 5 mph (NE)    
Max Wind Speed 9 mph    
Max Gust Speed -    
Visibility 8 miles    
Events      
Averages and records for this station are not official NWS values.
T = Trace of Precipitation, MM = Missing Value Source: NWS Daily Summary

Daily Weather History Graph

Daily Weather History Graph

Search for Another Location

Airport or City:

Trip Planner

Search our weather history database for the weather conditions in past years. The results will help you decide how hot, cold, wet, or windy it might be!

Date:

Astronomy

Jan. 08, 2013 Rise Set
Actual Time 7:22 AM EST 5:47 PM EST
Civil Twilight 6:56 AM EST 6:12 PM EST
Nautical Twilight 6:27 AM EST 6:42 PM EST
Astronomical Twilight 5:58 AM EST 7:10 PM EST
Moon 3:55 AM EST (1/8) 2:47 PM EST (1/8)
Length of Visible Light 11h 16m
Length of Day
10h 24m
Waning Crescent, 14% of the Moon is Illuminated
Jan 8
Waning Crescent
Jan 11
New
Jan 18
First Quarter
Jan 26
Full
Feb 3
Last Quarter

Hourly Weather History & Observations

Time (EST) Temp. Heat Index Dew Point Humidity Pressure Visibility Wind Dir Wind Speed Gust Speed Precip Events Conditions
12:15 AM 57.2 °F - 55.4 °F 94% 30.19 in 9.0 mi North 5.8 mph - N/A   Unknown
12:35 AM 57.2 °F - 55.4 °F 94% 30.20 in 9.0 mi North 3.5 mph - N/A   Unknown
1:15 AM 57.2 °F - 57.2 °F 100% 30.19 in 8.0 mi NNE 4.6 mph - N/A   Unknown
1:35 AM 57.2 °F - 57.2 °F 100% 30.19 in 8.0 mi North 5.8 mph - N/A   Unknown
1:55 AM 57.2 °F - 57.2 °F 100% 30.18 in 9.0 mi NNE 5.8 mph - N/A   Unknown
2:15 AM 57.2 °F - 57.2 °F 100% 30.18 in 8.0 mi North 4.6 mph - N/A   Unknown
2:35 AM 59.0 °F - 57.2 °F 94% 30.17 in 7.0 mi NNE 9.2 mph - N/A   Unknown
2:55 AM 60.8 °F - 57.2 °F 88% 30.17 in 8.0 mi NE 5.8 mph - N/A   Unknown
3:15 AM 60.8 °F - 59.0 °F 94% 30.17 in 7.0 mi NE 6.9 mph - N/A   Unknown
3:35 AM 60.8 °F - 59.0 °F 94% 30.17 in 8.0 mi NNE 4.6 mph - N/A   Unknown
3:55 AM 60.8 °F - 59.0 °F 94% 30.17 in 7.0 mi NNE 5.8 mph - N/A   Unknown
4:15 AM 60.8 °F - 59.0 °F 94% 30.17 in 7.0 mi NNE 5.8 mph - N/A   Unknown
4:35 AM 60.8 °F - 59.0 °F 94% 30.16 in 7.0 mi NNE 4.6 mph - N/A   Unknown
4:55 AM 60.8 °F - 59.0 °F 94% 30.16 in 6.0 mi Calm Calm - N/A   Mist
5:15 AM 60.8 °F - 59.0 °F 94% 30.17 in 5.0 mi Calm Calm - N/A   Mist
5:35 AM 60.8 °F - 60.8 °F 100% 30.17 in 5.0 mi Calm Calm - N/A   Mist
5:55 AM 60.8 °F - 60.8 °F 100% 30.18 in 5.0 mi Calm Calm - N/A   Mist
6:15 AM 60.8 °F - 60.8 °F 100% 30.19 in 5.0 mi NNE 3.5 mph - N/A   Mist
6:35 AM 60.8 °F - 60.8 °F 100% 30.19 in 5.0 mi NNE 3.5 mph - N/A   Mist
6:55 AM 60.8 °F - 60.8 °F 100% 30.20 in 4.0 mi Calm Calm - N/A   Mist
7:15 AM 59.0 °F - 59.0 °F 100% 30.21 in 4.0 mi Calm Calm - N/A   Mist
7:35 AM 59.0 °F - 59.0 °F 100% 30.21 in 3.0 mi Calm Calm - N/A   Mist
7:55 AM 60.8 °F - 60.8 °F 100% 30.22 in 3.0 mi Calm Calm - N/A   Mist
8:15 AM 60.8 °F - 60.8 °F 100% 30.23 in 4.0 mi NNE 3.5 mph - N/A   Mist
8:55 AM 64.4 °F - 62.6 °F 94% 30.24 in 5.0 mi Calm Calm - N/A   Mist
9:15 AM 66.2 °F - 64.4 °F 94% 30.25 in 7.0 mi NE 6.9 mph - N/A   Unknown
9:35 AM 69.8 °F - 64.4 °F 83% 30.25 in 8.0 mi NNE 4.6 mph - N/A   Unknown
9:55 AM 71.6 °F - 66.2 °F 83% 30.26 in 7.0 mi ENE 5.8 mph - N/A   Unknown
10:35 AM 73.4 °F - 66.2 °F 78% 30.25 in 10.0 mi NE 9.2 mph - N/A   Unknown
10:55 AM 73.4 °F - 66.2 °F 78% 30.25 in 9.0 mi NE 5.8 mph - N/A   Unknown
11:15 AM 75.2 °F - 66.2 °F 73% 30.24 in 10.0 mi ENE 9.2 mph - N/A   Unknown
11:35 AM 75.2 °F - 66.2 °F 73% 30.23 in 10.0 mi East 6.9 mph - N/A   Unknown
11:55 AM 75.2 °F - 66.2 °F 73% 30.23 in 9.0 mi ENE 4.6 mph - N/A   Unknown
12:15 PM 75.2 °F - 66.2 °F 73% 30.22 in 10.0 mi NNE 5.8 mph - N/A   Unknown
12:55 PM 78.8 °F - 66.2 °F 65% 30.19 in 10.0 mi ENE 9.2 mph - N/A   Unknown
1:15 PM 77.0 °F - 66.2 °F 69% 30.19 in 10.0 mi ENE 9.2 mph - N/A   Unknown
1:35 PM 78.8 °F - 66.2 °F 65% 30.18 in 10.0 mi ENE 8.1 mph - N/A   Unknown
1:55 PM 77.0 °F - 66.2 °F 69% 30.18 in 10.0 mi NE 8.1 mph - N/A   Unknown
2:15 PM 77.0 °F - 66.2 °F 69% 30.18 in 10.0 mi ENE 6.9 mph - N/A   Unknown
2:35 PM 78.8 °F - 66.2 °F 65% 30.17 in 10.0 mi NE 8.1 mph - N/A   Unknown
2:55 PM 80.6 °F 82.7 °F 66.2 °F 61% 30.16 in 10.0 mi NE 8.1 mph - N/A   Unknown
3:15 PM 78.8 °F - 64.4 °F 61% 30.16 in 10.0 mi ENE 8.1 mph - N/A   Unknown
3:35 PM 77.0 °F - 66.2 °F 69% 30.16 in 10.0 mi NE 8.1 mph - N/A   Unknown
3:55 PM 78.8 °F - 66.2 °F 65% 30.16 in 10.0 mi NE 6.9 mph - N/A   Unknown
4:15 PM 77.0 °F - 66.2 °F 69% 30.17 in 10.0 mi ENE 5.8 mph - N/A   Unknown
4:35 PM 78.8 °F - 66.2 °F 65% 30.17 in 10.0 mi NE 5.8 mph - N/A   Unknown
4:55 PM 77.0 °F - 66.2 °F 69% 30.18 in 10.0 mi NNE 9.2 mph - N/A   Unknown
5:15 PM 75.2 °F - 66.2 °F 73% 30.18 in 10.0 mi NNE 6.9 mph - N/A   Unknown
5:35 PM 73.4 °F - 66.2 °F 78% 30.18 in 10.0 mi NE 9.2 mph - N/A   Unknown
5:55 PM 73.4 °F - 66.2 °F 78% 30.18 in 10.0 mi NE 8.1 mph - N/A   Unknown
6:15 PM 73.4 °F - 66.2 °F 78% 30.19 in 10.0 mi NE 9.2 mph - N/A   Unknown
6:35 PM 71.6 °F - 66.2 °F 83% 30.19 in 10.0 mi NE 9.2 mph - N/A   Unknown
6:55 PM 71.6 °F - 66.2 °F 83% 30.20 in 10.0 mi NE 6.9 mph - N/A   Unknown
7:35 PM 69.8 °F - 66.2 °F 88% 30.20 in 10.0 mi ENE 5.8 mph - N/A   Unknown
7:55 PM 69.8 °F - 66.2 °F 88% 30.21 in 10.0 mi NE 9.2 mph - N/A   Unknown
8:15 PM 69.8 °F - 66.2 °F 88% 30.20 in 10.0 mi ENE 8.1 mph - N/A   Unknown
8:35 PM 69.8 °F - 66.2 °F 88% 30.20 in 10.0 mi ENE 9.2 mph - N/A   Unknown
8:55 PM 68.0 °F - 66.2 °F 94% 30.20 in 10.0 mi ENE 6.9 mph - N/A   Unknown
9:15 PM 68.0 °F - 66.2 °F 94% 30.21 in 10.0 mi Calm Calm - N/A   Unknown
9:35 PM 68.0 °F - 66.2 °F 94% 30.21 in 10.0 mi NNE 5.8 mph - N/A   Unknown
9:55 PM 68.0 °F - 66.2 °F 94% 30.22 in 10.0 mi NE 5.8 mph - N/A   Unknown
10:35 PM 66.2 °F - 66.2 °F 100% 30.23 in 10.0 mi NE 6.9 mph - N/A   Unknown
10:55 PM 68.0 °F - 66.2 °F 94% 30.23 in 9.0 mi NE 5.8 mph - N/A   Unknown
11:15 PM 68.0 °F - 66.2 °F 94% 30.23 in 1.2 mi NE 6.9 mph - N/A   Mist
11:35 PM 68.0 °F - 68.0 °F 100% 30.23 in 4.0 mi NE 6.9 mph - N/A   Mist
11:55 PM 68.0 °F - 68.0 °F 100% 30.23 in 7.0 mi NNE 8.1 mph - N/A   Unknown